Location: ????????
(55.0097°N, 38.5678°E)
Time: 01:09:27
(UTC+00:00)

NOSS 3-1 (C) - Pass Details

Date: 17 December 2025
Orbit: 618 x 1583 km, 63.4° (Epoch: 10 January)

Event Time Altitude Azimuth Distance (km) Brightness Sun altitude
Exits shadow 02:18:08 12° 205° (SSW) 3,317 6.0 -28.0°
Drops below altitude 10° 02:18:56 10° 201° (SSW) 3,516 6.2 -27.9°
Sets 02:22:52 0° 188° (S) 4,610 7.0 -27.3°
